Regional Weather Roundup
Issued by NWS

Home | Current Version | Previous Version | Graphics & Text | Print | Product List | Glossary Off
Versions: 1 2 3 4 5 6 7 8 9 10 11 12 13 14 15 16 17 18 19 20 21 22 23 24 25 26 27 28 29 30 31 32 33 34 35 36 37 38 39 40 41 42 43 44 45 46 47 48 49 50

000
ASUS44 KFWD 270903
RWRTX
NORTH TEXAS HOURLY WEATHER ROUNDUP
NATIONAL WEATHER SERVICE FORT WORTH TX
400 AM CDT THU JUL 27 2017

NOTE: "FAIR" INDICATES FEW OR NO CLOUDS BELOW 12,000 FEET WITH NO
SIGNIFICANT WEATHER AND/OR OBSTRUCTIONS TO VISIBILITY.

TXZ118-119-271000-
DALLAS/FORT WORTH METROPLEX

CITY           SKY/WX    TMP DP  RH WIND       PRES   REMARKS
DFW AIRPORT    MOCLDY    84  71  65 S15       29.98S
DALLAS LOVE    MOCLDY    84  70  62 S6        30.00R
FTW MEACHAM    PTCLDY    83  70  64 S13       29.99R
DAL-EXECUTIVE  CLOUDY    81  72  74 VRB5      30.00R
FTW-ALLIANCE   PTCLDY    82  69  64 S13G20    29.98S
FTW-NAS-JRB    MOCLDY    82  69  64 S13       29.99S
FTW-SPINKS     PTCLDY    80  69  69 S7        30.02S
ARLINGTON      MOCLDY    82  71  69 S8        30.00R
GRAND PRAIRIE  CLOUDY    82  69  63 S8        30.02R
ADDISON        PTCLDY    83  70  65 S8G17     30.02S
MESQUITE       CLOUDY    79  70  75 S7        30.01S
LANCASTER      PTCLDY    80  70  72 S8        30.02R
$$

TXZ091>094-102>105-117-120-121-131>134-271000-
NORTH CENTRAL TEXAS

CITY           SKY/WX    TMP DP  RH WIND       PRES   REMARKS
SHRMAN/DENISON CLEAR     79  71  77 S9        30.00S
GAINESVILLE    CLEAR     77  70  78 SE6       30.00S
BOWIE          PTCLDY    79  69  71 SE7       29.98F
BRIDGEPORT     PTCLDY    80  65  59 S5        29.99S
DECATUR        PTCLDY    82  67  61 S10       29.99F
DENTON         CLEAR     79  71  76 S7        29.98S
MCKINNEY       PTCLDY    81  72  74 S10       29.99S
BONHAM         PTCLDY    79  72  78 S12       30.00S
GREENVILLE     CLOUDY    82  72  69 S9        30.01F
ROCKWALL       PTCLDY    80  72  76 S8        30.02S
TERRELL        CLOUDY    80  71  74 S6        30.02R
WAXAHACHIE     CLOUDY    79  72  78 S7        30.03R
CLEBURNE       PTCLDY    79  73  83 S7        30.03S
GRANBURY       PTCLDY    83  66  56 S9        30.01S
$$

TXZ083>090-098>101-113>116-127>130-139>142-154-155-271000-
WESTERN NORTH TEXAS

CITY           SKY/WX    TMP DP  RH WIND       PRES   REMARKS
WICHITA FALLS  CLEAR     79  66  64 S10       29.95R
WF-KICKAPOO    CLEAR     78  67  67 S7        29.98S
VERNON         CLEAR     81  60  48 S8        29.96R
ABILENE        CLOUDY    80  66  62 S13       30.03S
ABILENE-DYESS  CLEAR     81  66  60 S18G26    30.01S
GRAHAM         PTCLDY    82  65  56 S6        29.98S
BRECKENRIDGE   CLOUDY    83  64  52 S14       29.99S
CISCO          CLOUDY    79  66  65 S12G18    30.03S
EASTLAND       MOCLDY    80  66  63 S13       30.02S
RANGER         MOCLDY    78  65  65 S12       30.02S
MINERAL WELLS  CLOUDY    77  66  68 SE7       29.98F
STEPHENVILLE   MOCLDY    77  64  64 S5        30.06S
COMANCHE       PTCLDY    78  66  66 S14G23    30.03F
BROWNWOOD      MOCLDY    77  64  65 S6        30.05S
COLEMAN        PTCLDY    78  64  61 S13       30.04F
$$

TXZ143>147-156>162-174-175-271000-
CENTRAL TEXAS

CITY           SKY/WX    TMP DP  RH WIND       PRES   REMARKS
WACO           PTCLDY    80  72  76 S16       30.02R
WACO-MCGREGOR  CLEAR     78  71  79 S10       30.02F
HILLSBORO      MOCLDY    80  72  76 S7        30.02F
CORSICANA      PTCLDY    79  73  82 S9        30.03S
MEXIA          CLEAR     77  72  84 S10G21    30.04R
CAMERON        CLEAR     77  72  83 S3        30.05R
TEMPLE         CLEAR     77  72  84 S9        30.04R
KILLEEN        CLEAR    N/A N/A N/A S8        30.03F
KILLEEN-SKYLRK CLEAR     78  71  79 S8        30.04S
FORT HOOD      CLEAR     77  70  77 S8        30.01S
HAMILTON       PTCLDY    77  68  73 SW8       30.05S
LAMPASAS       CLEAR     78  72  81 SW6       30.04S
$$

TXZ095>097-106>112-122>126-135>138-148>153-164>167-271000-
EAST TEXAS

CITY           SKY/WX    TMP DP  RH WIND       PRES   REMARKS
PARIS            N/A     77 N/A N/A S7        30.01S
SULPHUR SPRNGS CLEAR     81  73  76 S9        30.03F
MOUNT PLEASANT CLEAR     77  72  82 CALM      30.03S
GILMER         CLEAR     78  74  86 CALM      30.03R
MINEOLA        PTCLDY    81  73  78 S7        30.02S
TYLER          PTCLDY    80  74  81 S8        30.03R
LONGVIEW       MOCLDY    79  75  87 S9        30.02S
MARSHALL         N/A     75  71  87 S3        30.05R
ATHENS         CLOUDY    77  72  83 S6        30.02S
PALESTINE      PTCLDY    78  74  87 S5        30.05R
JACKSONVILLE   CLEAR     76  75  97 S6        30.07R
HENDERSON      PTCLDY    77  73  90 S3        30.05S
CENTER         SUNNY     81  79  94 S5        30.05S FOG
NACOGDOCHES    CLEAR     75  73  94 S3        30.02F
LUFKIN         CLEAR     75  73  93 S3        30.04F
$$

SUPPLEMENTAL OBSERVATIONS (NWS FORT WORTH AREA)

CITY           SKY/WX    TMP DP  RH WIND       PRES   REMARKS
$$

SUPPLEMENTAL OBSERVATIONS (NWS NORMAN AREA)

CITY           SKY/WX    TMP DP  RH WIND       PRES   REMARKS
GOODLETT         N/A     80  58  46 S7        29.97S
ODELL            N/A     82  64  54 S12       29.97S
CROWELL          N/A     83  62  48 S12       29.98S
KNOX CITY        N/A     82  59  45 S12       29.98S
SEYMOUR          N/A     79  62  55 SE6       29.97S
$$

SUPPLEMENTAL OBSERVATIONS (NWS SAN ANGELO AREA)

CITY           SKY/WX    TMP DP  RH WIND       PRES   REMARKS
WEINERT          N/A     83  62  50 S12       29.98F
THROCKMORTON     N/A     81  65  58 S8        30.00S
STAMFORD         N/A     83  64  53 S14       30.01R
CLYDE            N/A     78  66  66 S10       30.06S
$$

SUPPLEMENTAL OBSERVATIONS (NWS SHREVEPORT AREA)

CITY           SKY/WX    TMP DP  RH WIND       PRES   REMARKS
$$

SUPPLEMENTAL OBSERVATIONS ARE A COLLECTION OF AUTOMATED INSTRUMENTS
THAT ARE MAINTAINED BY A VARIETY OF FEDERAL AND STATE AGENCIES.
CERTAIN ELEMENTS...SUCH AS HUMIDITY VALUES AND SUSTAINED WIND
SPEEDS...MAY BE APPROXIMATED.





USA.gov is the U.S. government's official web portal to all federal, state and local government web resources and services.